Location: Krakow
(50.0830°N, 19.9170°E)
Time: 22:20:07
(UTC+01:00)

Transit 2A Rocket - Pass Details

Date: 17 December 2023
Orbit: 590 x 905 km, 66.7° (Epoch: 03 March)

Event Time Altitude Azimuth Distance (km) Brightness Sun altitude
Rises 19:06:23 0° 239° (WSW) 2,941 8.8 -32.0°
Reaches altitude 10° 19:08:51 10° 248° (WSW) 1,997 7.9 -32.4°
Enters shadow 19:11:19 27° 272° (W) 1,188 6.5 -32.8°
Maximum altitude 19:13:00 37° 316° (NW) 946 - -33.0°
Drops below altitude 10° 19:17:01 10° 25° (NNE) 1,933 - -33.7°
Sets 19:19:23 0° 34° (NE) 2,834 - -34.1°
